Stündliche Wetter Bern

Heute, 4 August, Mittwoch

Zeit Temperatur Niederschläge Wind Luftdruck Luftfeuchtigkeit
00:00 +13°C° 0.9 mm 0 m/S 714 mmHg 98%
01:00 +13°C° 0.4 mm 0 m/S 714 mmHg 97%
02:00 +13°C° 0.4 mm 0 m/S 714 mmHg 97%
03:00 +13°C° 0.4 mm 0 m/S 713 mmHg 97%
04:00 +13°C° 0.1 mm 0 m/S 713 mmHg 97%
05:00 +13°C° 0.1 mm 0 m/S 713 mmHg 96%
06:00 +13°C° 0.1 mm 0 m/S 713 mmHg 96%
07:00 +14°C° 0.1 mm 0 m/S 713 mmHg 95%
08:00 +14°C° 0.1 mm 0 m/S 713 mmHg 94%
09:00 +15°C° 0.1 mm 0 m/S 713 mmHg 94%
10:00 +14°C° 0.6 mm 0 m/S 713 mmHg 95%
11:00 +14°C° 0.6 mm 0 m/S 713 mmHg 96%
12:00 +14°C° 0.6 mm 0 m/S 713 mmHg 97%
13:00 +14°C° 0.9 mm 0 m/S 713 mmHg 97%
14:00 +14°C° 0.9 mm 0 m/S 713 mmHg 98%
15:00 +14°C° 0.9 mm 0 m/S 713 mmHg 98%
16:00 +14°C° 0.8 mm 0 m/S 713 mmHg 98%
17:00 +14°C° 0.8 mm 0 m/S 713 mmHg 98%
18:00 +14°C° 0.8 mm 0 m/S 713 mmHg 98%
19:00 +13°C° 0.2 mm 0 m/S 713 mmHg 98%
20:00 +14°C° 0.2 mm 1 m/S 713 mmHg 98%
21:00 +14°C° 0.2 mm 1 m/S 713 mmHg 97%
22:00 +14°C° 0 mm 1 m/S 713 mmHg 97%
23:00 +14°C° 0 mm 1 m/S 713 mmHg 97%

Morgen, 5 August, Donnerstag

Zeit Temperatur Niederschläge Wind Luftdruck Luftfeuchtigkeit
00:00 +13°C° 0 mm 1 m/S 713 mmHg 97%
01:00 +13°C° 0.1 mm 1 m/S 712 mmHg 96%
02:00 +13°C° 0.1 mm 1 m/S 712 mmHg 96%
03:00 +13°C° 0.1 mm 1 m/S 712 mmHg 96%
04:00 +13°C° 0.4 mm 1 m/S 712 mmHg 96%
05:00 +14°C° 0.4 mm 1 m/S 712 mmHg 95%
06:00 +15°C° 0.4 mm 1 m/S 712 mmHg 95%
07:00 +16°C° 0.3 mm 2 m/S 712 mmHg 93%
08:00 +17°C° 0.3 mm 2 m/S 712 mmHg 91%
09:00 +18°C° 0.3 mm 3 m/S 712 mmHg 88%
10:00 +18°C° 0.6 mm 3 m/S 712 mmHg 87%
11:00 +18°C° 0.6 mm 3 m/S 712 mmHg 86%
12:00 +19°C° 0.6 mm 3 m/S 712 mmHg 85%
13:00 +19°C° 0.4 mm 3 m/S 712 mmHg 81%
14:00 +20°C° 0.4 mm 3 m/S 712 mmHg 77%
15:00 +20°C° 0.4 mm 3 m/S 712 mmHg 72%
16:00 +19°C° 0.2 mm 2 m/S 712 mmHg 77%
17:00 +19°C° 0.2 mm 2 m/S 711 mmHg 81%
18:00 +19°C° 0.2 mm 1 m/S 711 mmHg 85%
19:00 +18°C° 0 mm 1 m/S 712 mmHg 87%
20:00 +16°C° 0 mm 1 m/S 712 mmHg 89%
21:00 +15°C° 0 mm 1 m/S 712 mmHg 91%
22:00 +15°C° 0 mm 1 m/S 712 mmHg 91%
23:00 +14°C° 0 mm 1 m/S 712 mmHg 91%

übermorgen, 6 August, Freitag

Zeit Temperatur Niederschläge Wind Luftdruck Luftfeuchtigkeit
00:00 +14°C° 0 mm 1 m/S 711 mmHg 91%
01:00 +14°C° 0 mm 1 m/S 711 mmHg 90%
02:00 +14°C° 0 mm 1 m/S 711 mmHg 90%
03:00 +14°C° 0 mm 1 m/S 711 mmHg 90%
04:00 +15°C° 0 mm 1 m/S 711 mmHg 88%
05:00 +15°C° 0 mm 1 m/S 711 mmHg 87%
06:00 +16°C° 0 mm 1 m/S 711 mmHg 86%
07:00 +18°C° 0 mm 2 m/S 711 mmHg 78%
08:00 +19°C° 0 mm 2 m/S 711 mmHg 70%
09:00 +21°C° 0 mm 3 m/S 711 mmHg 62%
10:00 +22°C° 0 mm 3 m/S 711 mmHg 61%
11:00 +22°C° 0 mm 3 m/S 711 mmHg 60%
12:00 +24°C° 0 mm 3 m/S 711 mmHg 59%
13:00 +24°C° 0 mm 2 m/S 711 mmHg 59%
14:00 +24°C° 0 mm 2 m/S 711 mmHg 59%
15:00 +25°C° 0 mm 2 m/S 711 mmHg 59%
16:00 +24°C° 0 mm 2 m/S 711 mmHg 66%
17:00 +23°C° 0 mm 1 m/S 711 mmHg 73%
18:00 +21°C° 0 mm 1 m/S 711 mmHg 80%
19:00 +20°C° 0 mm 1 m/S 711 mmHg 84%
20:00 +18°C° 0 mm 1 m/S 711 mmHg 89%
21:00 +16°C° 0 mm 1 m/S 711 mmHg 93%
22:00 +15°C° 0 mm 1 m/S 711 mmHg 93%
23:00 +15°C° 0 mm 1 m/S 710 mmHg 93%

7 August, Samstag

Zeit Temperatur Niederschläge Wind Luftdruck Luftfeuchtigkeit
00:00 +15°C° 0 mm 1 m/S 710 mmHg 93%
01:00 +15°C° 0.1 mm 1 m/S 710 mmHg 93%
02:00 +15°C° 0.1 mm 1 m/S 710 mmHg 93%
03:00 +15°C° 0.1 mm 1 m/S 710 mmHg 93%
04:00 +16°C° 0.1 mm 1 m/S 710 mmHg 92%
05:00 +15°C° 0.1 mm 0 m/S 710 mmHg 90%
06:00 +16°C° 0.1 mm 0 m/S 709 mmHg 89%
07:00 +17°C° 0.3 mm 0 m/S 710 mmHg 86%
08:00 +20°C° 0.3 mm 1 m/S 710 mmHg 84%
09:00 +20°C° 0.3 mm 1 m/S 710 mmHg 81%
10:00 +21°C° 0.3 mm 1 m/S 710 mmHg 83%
11:00 +21°C° 0.3 mm 1 m/S 710 mmHg 84%
12:00 +21°C° 0.3 mm 1 m/S 710 mmHg 85%
13:00 +21°C° 0.6 mm 1 m/S 710 mmHg 87%
14:00 +21°C° 0.6 mm 1 m/S 710 mmHg 89%
15:00 +21°C° 0.6 mm 1 m/S 710 mmHg 92%
16:00 +20°C° 4.6 mm 1 m/S 711 mmHg 94%
17:00 +18°C° 4.6 mm 2 m/S 711 mmHg 96%
18:00 +17°C° 4.6 mm 2 m/S 712 mmHg 97%
19:00 +16°C° 1 mm 1 m/S 713 mmHg 97%
20:00 +16°C° 1 mm 1 m/S 713 mmHg 97%
21:00 +16°C° 1 mm 1 m/S 714 mmHg 97%
22:00 +15°C° 0.1 mm 1 m/S 714 mmHg 97%
23:00 +15°C° 0.1 mm 1 m/S 714 mmHg 96%

8 August, Sonntag

Zeit Temperatur Niederschläge Wind Luftdruck Luftfeuchtigkeit
00:00 +15°C° 0.1 mm 1 m/S 714 mmHg 95%
01:00 +15°C° 0 mm 1 m/S 714 mmHg 95%
02:00 +14°C° 0 mm 0 m/S 714 mmHg 95%
03:00 +13°C° 0 mm 0 m/S 713 mmHg 95%
04:00 +14°C° 0.1 mm 0 m/S 714 mmHg 95%
05:00 +14°C° 0.1 mm 0 m/S 714 mmHg 95%
06:00 +14°C° 0.1 mm 0 m/S 714 mmHg 95%
07:00 +15°C° 0.1 mm 0 m/S 715 mmHg 94%
08:00 +15°C° 0.1 mm 0 m/S 715 mmHg 92%
09:00 +16°C° 0.1 mm 0 m/S 715 mmHg 91%
10:00 +17°C° 0.1 mm 0 m/S 716 mmHg 86%
11:00 +20°C° 0.1 mm 1 m/S 716 mmHg 81%
12:00 +21°C° 0.1 mm 1 m/S 716 mmHg 75%
13:00 +21°C° 0.1 mm 1 m/S 716 mmHg 73%
14:00 +22°C° 0.1 mm 1 m/S 717 mmHg 71%
15:00 +22°C° 0.1 mm 1 m/S 717 mmHg 69%
16:00 +21°C° 0.1 mm 1 m/S 717 mmHg 74%
17:00 +20°C° 0.1 mm 1 m/S 717 mmHg 80%
18:00 +19°C° 0.1 mm 1 m/S 717 mmHg 85%
19:00 +18°C° 0 mm 1 m/S 717 mmHg 87%
20:00 +16°C° 0 mm 1 m/S 718 mmHg 90%
21:00 +15°C° 0 mm 1 m/S 718 mmHg 93%
22:00 +14°C° 0 mm 1 m/S 718 mmHg 93%
23:00 +14°C° 0 mm 1 m/S 718 mmHg 93%

9 August, Montag

Zeit Temperatur Niederschläge Wind Luftdruck Luftfeuchtigkeit
00:00 +13°C° 0 mm 1 m/S 718 mmHg 93%
01:00 +13°C° 0 mm 1 m/S 718 mmHg 93%
02:00 +13°C° 0 mm 1 m/S 718 mmHg 93%
03:00 +13°C° 0 mm 1 m/S 718 mmHg 93%
04:00 +14°C° 0 mm 1 m/S 718 mmHg 91%
05:00 +14°C° 0 mm 1 m/S 718 mmHg 90%
06:00 +14°C° 0 mm 0 m/S 719 mmHg 88%
07:00 +18°C° 0 mm 1 m/S 719 mmHg 79%
08:00 +20°C° 0 mm 1 m/S 719 mmHg 70%
09:00 +23°C° 0 mm 1 m/S 719 mmHg 60%
10:00 +23°C° 0 mm 1 m/S 719 mmHg 57%
11:00 +24°C° 0 mm 2 m/S 719 mmHg 53%
12:00 +25°C° 0 mm 3 m/S 719 mmHg 49%
13:00 +25°C° 0 mm 3 m/S 719 mmHg 49%
14:00 +25°C° 0 mm 3 m/S 719 mmHg 50%
15:00 +25°C° 0 mm 3 m/S 719 mmHg 50%
16:00 +24°C° 0 mm 2 m/S 719 mmHg 59%
17:00 +22°C° 0 mm 1 m/S 719 mmHg 68%
18:00 +21°C° 0 mm 1 m/S 719 mmHg 78%
19:00 +19°C° 0 mm 1 m/S 720 mmHg 81%
20:00 +18°C° 0 mm 1 m/S 720 mmHg 84%
21:00 +15°C° 0 mm 1 m/S 720 mmHg 88%
22:00 +15°C° 0 mm 1 m/S 720 mmHg 88%
23:00 +14°C° 0 mm 1 m/S 720 mmHg 89%
Mehr zeigen

Wir brauchen deine Erlaubnis

Meteoprog und unser Service Anbieter werden persönliche Daten aufbewahren, so wie Cookies, Geräte Bezeichnung oder ähnliche Technologien von deinem Gerät und Prozess, so wie Persönliche Daten Inhalte und Werbungen, genauso wie social Media und den Verkehr zu analysieren.

  • Aufbewahrung und/oder Zugang zu deiner Geräte Informationen.

    Cookies, Geräte Bezeichnung oder andere Informationen, können aufbewahrt oder Zugang zu deinem Gerät erhalten, für den Grund, der oben angegeben wird.

  • Personalisierte Werbung und Inhalte, Messungen, Einblick in das Publikum und Produkt Entwicklung.

    Werbungen und Inhalte können personalisiert werden, basierend auf ein Profil. Mehr Daten können besser personalisierte Werbungen und Inhalte hinzufügen. Werbung und Inhalte können gezeigt und gemessen werden. Einblicke über das Publikum, welche die Werbung gesehen haben und den Inhalt, können abgeleitet werden. So wie Daten können genutzt werden, um es zu verbessern oder die Benutzer Erfahrung zu verbessern das System und die Software.

Wenn du “Ich stimme zu” klickst, erlaubst du uns, die Cookies zu benutzen die Geräte Bezeichnung, den Web oder ähnliche Technologien zu benutzen. Deine Settings, können in deinem Gerät bei deinem Browser geändert werden.

Für den bestimmten Zweck, berechtigten Interessen beruhen darauf, mehr als auf den Inhalt. Du kannst mehr darüber in unseren Privaten und Cookie Politik lesen.